Location: Bacharowice
(49.9333°N, 19.5833°E)
Time: 09:06:41
(UTC+00:00)

H-2A R/B - Pass Details

Date: 11 May 2021
Orbit: 573 x 598 km, 98.2° (Epoch: 21 June)

Event Time Altitude Azimuth Distance (km) Brightness Sun altitude
Rises 21:10:18 0° 10° (N) 2,851 8.0 -19.2°
Reaches altitude 10° 21:12:31 10° 5° (N) 1,941 7.0 -19.4°
Maximum altitude 21:16:35 49° 291° (WNW) 769 4.2 -19.6°
Enters shadow 21:18:55 23° 226° (SW) 1,279 4.9 -19.7°
